SR4DIG-13 Weather Reports


time (UTC)temp
C
wind
direction
speed
KPH
gust
KPH
rain 1hr
cm
rain 24hr
cm
rain mn
cm
humidity
%
barometer
mb
20260906010502 11 225 0.0 0.0 0.00 0.00 0.41 88 1010.5
20260906005227 11 247 0.0 0.0 0.00 0.00 0.41 88 1010.4
20260906004226 11 292 0.0 0.0 0.00 0.00 0.41 88 1010.4
20260906003725 11 270 0.0 0.0 0.00 0.00 0.41 88 1010.5
20260906003223 11 247 0.0 0.0 0.00 0.00 0.41 88 1010.5
20260906002722 11 270 0.0 0.0 0.00 0.00 0.41 88 1010.4
20260906002222 11 225 0.0 0.0 0.00 0.00 0.41 88 1010.5
20260906001721 11 247 0.0 0.0 0.00 0.00 0.41 88 1010.3
20260906001220 11 292 0.0 0.0 0.00 0.00 0.41 88 1010.3
20260906000719 11 247 0.0 0.0 0.00 0.00 0.41 88 1010.3
20260906000219 11 247 0.0 0.0 0.00 0.00 0.41 88 1010.3
20260905235717 11 247 0.0 0.0 0.00 0.00 0.41 88 1010.4
20260905235216 11 247 0.0 0.0 0.00 0.00 0.41 88 1010.4
20260905234716 11 315 0.0 0.0 0.00 0.00 0.41 88 1010.4
20260905234215 11 247 0.0 0.0 0.00 0.00 0.41 88 1010.4
20260905233714 11 270 0.0 0.0 0.00 0.00 0.41 88 1010.3
20260905233212 11 292 0.0 0.0 0.00 0.00 0.41 88 1010.2
20260905232712 11 292 0.0 0.0 0.00 0.00 0.41 88 1010.3
20260905232211 11 225 0.0 0.0 0.00 0.00 0.41 88 1010.3
20260905231209 11 270 0.0 0.0 0.00 0.00 0.41 87 1010.2
20260905230312 11 247 0.0 0.0 0.00 0.00 0.41 87 1010.3
20260905225811 11 225 0.0 0.0 0.00 0.00 0.41 87 1010.1
20260905225310 11 202 0.0 0.0 0.00 0.00 0.41 87 1010.2
20260905224809 11 247 0.0 0.0 0.00 0.00 0.41 87 1010.2
20260905224309 11 270 0.0 0.0 0.00 0.00 0.41 87 1010.2
20260905223808 11 180 0.0 0.0 0.00 0.00 0.41 87 1010.3
20260905223307 11 315 0.0 0.0 0.00 0.00 0.41 87 1010.3
20260905222805 12 247 3.2 0.0 0.00 0.00 0.41 87 1010.2
20260905222306 12 247 0.0 0.0 0.00 0.00 0.41 87 1010.2
20260905221804 12 247 0.0 0.0 0.00 0.00 0.41 87 1010.2
20260905221303 12 270 0.0 0.0 0.00 0.00 0.41 86 1010.2
20260905220802 12 225 0.0 0.0 0.00 0.00 0.41 86 1010.1
20260905220301 12 225 0.0 0.0 0.00 0.00 0.41 86 1010.2
20260905215800 12 270 0.0 0.0 0.00 0.00 0.41 86 1010.2
20260905215259 12 270 0.0 0.0 0.00 0.00 0.41 86 1010.3
20260905214759 11 247 0.0 0.0 0.00 0.00 0.41 87 1010.2
20260905214258 11 225 0.0 0.0 0.00 0.00 0.41 87 1010.1
20260905213757 11 225 0.0 0.0 0.00 0.00 0.41 87 1010.3
20260905213256 11 247 0.0 0.0 0.00 0.00 0.41 87 1010.2
20260905212755 11 315 0.0 0.0 0.00 0.00 0.41 87 1010.1
20260905212046 11 247 0.0 0.0 0.00 0.00 0.41 87 1010.0
20260905211417 11 247 0.0 0.0 0.00 0.00 0.41 87 1010.0
20260905210916 11 247 0.0 0.0 0.00 0.00 0.41 87 1010.0
20260905210415 11 247 0.0 0.0 0.00 0.00 0.41 87 1010.0
20260905205914 11 292 0.0 0.0 0.00 0.00 0.41 87 1010.1
20260905205413 11 247 0.0 0.0 0.00 0.00 0.41 87 1010.1
20260905204912 11 247 0.0 0.0 0.00 0.00 0.41 87 1010.1
20260905204412 11 270 0.0 0.0 0.00 0.00 0.41 87 1010.1
20260905203911 11 270 0.0 0.0 0.00 0.00 0.41 87 1010.0
20260905203410 11 225 0.0 0.0 0.00 0.00 0.41 87 1010.0
20260905202909 11 247 0.0 0.0 0.00 0.00 0.41 87 1010.0
20260905202408 11 247 0.0 0.0 0.00 0.00 0.41 87 1010.1
20260905201907 11 247 0.0 0.0 0.00 0.00 0.41 87 1010.0
20260905201406 11 247 0.0 0.0 0.00 0.00 0.41 87 1010.0
20260905200905 11 315 0.0 0.0 0.00 0.00 0.41 87 1010.2
20260905200404 11 225 0.0 0.0 0.00 0.00 0.41 87 1010.2
20260905195903 11 247 0.0 0.0 0.00 0.00 0.41 87 1010.2
20260905195402 11 225 0.0 0.0 0.00 0.00 0.41 87 1010.2
20260905194902 11 225 3.2 0.0 0.00 0.00 0.41 87 1010.3
20260905194401 11 247 0.0 0.0 0.00 0.00 0.41 87 1010.3
20260905193422 11 247 0.0 0.0 0.00 0.00 0.41 87 1010.4
20260905192921 11 247 0.0 0.0 0.00 0.00 0.41 87 1010.3
20260905192420 11 247 0.0 0.0 0.00 0.00 0.41 87 1010.3
20260905191919 11 247 0.0 0.0 0.00 0.00 0.41 87 1010.3
20260905191418 11 247 0.0 0.0 0.00 0.00 0.41 87 1010.3
20260905190917 11 247 0.0 0.0 0.00 0.00 0.41 87 1010.4
20260905190416 11 270 0.0 0.0 0.00 0.00 0.41 87 1010.4
20260905185915 11 247 0.0 0.0 0.00 0.00 0.41 87 1010.5
20260905185414 11 247 0.0 0.0 0.00 0.00 0.41 87 1010.5
20260905184913 11 247 0.0 0.0 0.00 0.00 0.41 87 1010.5
20260905184413 11 202 0.0 0.0 0.00 0.00 0.41 87 1010.5
20260905183912 11 247 0.0 0.0 0.00 0.00 0.41 87 1010.6
20260905183411 11 225 0.0 0.0 0.00 0.00 0.41 87 1010.5
20260905182910 11 292 0.0 0.0 0.00 0.00 0.41 87 1010.6
20260905182409 11 247 0.0 0.0 0.00 0.00 0.41 86 1010.4
20260905181908 11 270 0.0 0.0 0.00 0.00 0.41 86 1010.5
20260905181407 11 247 0.0 0.0 0.00 0.00 0.41 87 1010.6
20260905180906 11 247 0.0 0.0 0.00 0.00 0.41 86 1010.6
20260905180405 11 225 0.0 0.0 0.00 0.00 0.41 86 1010.8
20260905175905 11 292 0.0 0.0 0.00 0.00 0.41 86 1010.8
20260905174829 11 247 0.0 0.0 0.00 0.00 0.41 86 1010.7
20260905174329 11 247 0.0 0.0 0.00 0.00 0.41 86 1010.6
20260905173828 11 270 0.0 0.0 0.00 0.00 0.41 86 1010.5
20260905173327 11 270 0.0 0.0 0.00 0.00 0.41 86 1010.5
20260905172826 11 315 0.0 0.0 0.00 0.00 0.41 86 1010.4
20260905172325 11 270 0.0 0.0 0.00 0.00 0.41 86 1010.4
20260905171824 11 247 0.0 0.0 0.00 0.00 0.41 86 1010.4
20260905171323 11 225 0.0 0.0 0.00 0.00 0.41 86 1010.5
20260905170822 11 247 0.0 0.0 0.00 0.00 0.41 85 1010.6
20260905170321 11 247 0.0 0.0 0.00 0.00 0.41 85 1010.5
20260905165820 11 247 0.0 0.0 0.00 0.00 0.41 85 1010.4
20260905165319 11 270 0.0 0.0 0.00 0.00 0.41 85 1010.4
20260905164819 11 225 0.0 0.0 0.00 0.00 0.41 85 1010.6
20260905164318 11 292 0.0 0.0 0.00 0.00 0.41 84 1010.7
20260905163817 11 225 0.0 0.0 0.00 0.00 0.41 84 1010.6
20260905163316 11 270 0.0 0.0 0.00 0.00 0.41 84 1010.5
20260905162815 11 247 0.0 0.0 0.00 0.00 0.41 84 1010.5
20260905162314 11 225 0.0 0.0 0.00 0.00 0.36 84 1010.4
20260905161719 11 247 0.0 0.0 0.00 0.00 0.36 83 1010.3
20260905161218 11 225 0.0 0.0 0.00 0.00 0.30 82 1010.2
20260905160308 11 135 0.0 0.0 0.00 0.00 0.30 82 1010.5
20260905155806 12 135 0.0 0.0 0.00 0.00 0.30 81 1010.6
20260905155306 12 135 0.0 0.0 0.00 0.00 0.23 81 1010.6
20260905154804 12 135 0.0 0.0 0.00 0.00 0.23 80 1010.4
20260905154304 12 135 0.0 0.0 0.00 0.00 0.23 80 1010.2
20260905153803 13 135 0.0 0.0 0.00 0.00 0.18 79 1010.2
20260905153302 13 135 0.0 0.0 0.00 0.00 0.18 79 1010.2
20260905152801 14 135 0.0 0.0 0.00 0.00 0.13 78 1010.1
20260905152300 15 135 0.0 0.0 0.00 0.00 0.08 76 1010.1
20260905151759 15 135 0.0 0.0 0.00 0.00 0.00 75 1009.9
20260905151258 15 135 0.0 0.0 0.00 0.00 0.00 74 1009.2
20260905150757 15 135 0.0 0.0 0.00 0.00 0.00 75 1009.2
20260905150256 15 135 0.0 0.0 0.00 0.00 0.00 76 1009.3
20260905145755 15 135 0.0 0.0 0.00 0.00 0.00 76 1009.2
20260905145254 15 135 0.0 0.0 0.00 0.00 0.00 76 1009.2
20260905144754 15 135 0.0 0.0 0.00 0.00 0.00 77 1009.2
20260905144253 15 135 0.0 0.0 0.00 0.00 0.00 77 1009.0
20260905143752 13 135 0.0 0.0 0.00 0.00 0.00 77 1009.2
20260905143139 13 135 0.0 0.0 0.00 0.00 0.00 78 1009.2
20260905142348 13 135 0.0 0.0 0.00 0.00 0.00 77 1009.2
20260905141847 13 135 0.0 0.0 0.00 0.00 0.00 76 1009.2
20260905141346 13 135 0.0 0.0 0.00 0.00 0.00 76 1009.2
20260905140845 13 135 0.0 0.0 0.00 0.00 0.00 75 1009.3
20260905140344 13 135 0.0 0.0 0.00 0.00 0.00 74 1009.3
20260905135843 14 135 0.0 0.0 0.00 0.00 0.00 72 1009.4
20260905135342 15 135 0.0 0.0 0.00 0.00 0.00 69 1009.5
20260905134841 17 135 0.0 0.0 0.00 0.00 0.00 64 1009.6
20260905134341 18 157 0.0 0.0 0.00 0.00 0.00 57 1009.2
20260905133840 18 157 0.0 0.0 0.00 0.00 0.00 56 1008.6
20260905133339 18 0 0.0 0.0 0.00 0.00 0.00 55 1008.5
20260905132838 18 0 0.0 0.0 0.00 0.00 0.00 53 1008.5
20260905132337 19 112 0.0 0.0 0.00 0.00 0.00 52 1008.5
20260905131836 20 135 0.0 0.0 0.00 0.00 0.00 50 1008.4
20260905131335 21 135 0.0 0.0 0.00 0.00 0.00 49 1008.3
20260905130835 22 112 0.0 0.0 0.00 0.00 0.00 47 1008.3
20260905130334 22 112 3.2 0.0 0.00 0.00 0.00 47 1008.2
20260905125832 23 270 3.2 0.0 0.00 0.00 0.00 47 1008.2
20260905125331 22 135 0.0 0.0 0.00 0.00 0.00 49 1008.2
20260905124831 20 135 0.0 0.0 0.00 0.00 0.00 54 1008.1
20260905123740 20 157 0.0 0.0 0.00 0.00 0.00 58 1008.2
20260905123239 20 337 0.0 0.0 0.00 0.00 0.00 60 1008.3
20260905122738 18 112 0.0 0.0 0.00 0.00 0.00 65 1008.4
20260905122237 18 112 0.0 0.0 0.00 0.00 0.00 65 1008.4
20260905121736 18 112 0.0 0.0 0.00 0.00 0.00 65 1008.2
20260905121235 19 112 0.0 0.0 0.00 0.00 0.00 64 1008.3
20260905120734 19 112 0.0 0.0 0.00 0.00 0.00 65 1008.3
20260905120234 18 112 0.0 0.0 0.00 0.00 0.00 68 1008.3
20260905115732 16 112 0.0 0.0 0.00 0.00 0.23 70 1008.3
20260905115231 16 112 0.0 0.0 0.00 0.00 0.23 70 1008.4
20260905114230 16 112 0.0 0.0 0.00 0.00 0.23 68 1008.4
20260905113729 17 112 0.0 0.0 0.00 0.00 0.23 64 1008.4
20260905113228 18 112 0.0 0.0 0.00 0.00 0.23 60 1008.2
20260905112727 21 225 3.2 0.0 0.00 0.00 0.23 50 1008.1
20260905112226 22 135 0.0 0.0 0.00 0.00 0.23 49 1007.7
20260905111725 22 22 0.0 0.0 0.00 0.00 0.23 51 1007.7
20260905111224 21 22 0.0 0.0 0.00 0.00 0.23 51 1007.7
20260905110724 21 0 3.2 0.0 0.00 0.00 0.23 51 1007.6
20260905110153 21 0 0.0 0.0 0.00 0.00 0.23 51 1007.6
20260905105521 20 45 0.0 0.0 0.00 0.00 0.23 53 1007.4
20260905104718 20 45 0.0 0.0 0.00 0.00 0.23 53 1007.6
20260905104218 20 45 0.0 0.0 0.00 0.00 0.23 52 1007.5
20260905103717 21 45 3.2 0.0 0.00 0.00 0.23 52 1007.4
20260905103216 21 45 0.0 0.0 0.00 0.00 0.23 52 1007.4
20260905102715 21 45 0.0 0.0 0.00 0.00 0.23 53 1007.2
20260905102214 21 112 0.0 0.0 0.00 0.00 0.23 53 1007.3
20260905101713 21 67 0.0 0.0 0.00 0.00 0.23 55 1007.4
20260905101212 20 67 0.0 0.0 0.00 0.00 0.23 60 1007.5
20260905100712 18 180 0.0 0.0 0.00 0.00 0.23 62 1007.6
20260905095710 17 157 0.0 0.0 0.00 0.00 0.23 62 1007.5
20260905095208 17 270 0.0 0.0 0.00 0.00 0.23 62 1007.6
20260905094708 17 0 0.0 0.0 0.00 0.00 0.23 61 1007.7
20260905094207 18 270 0.0 0.0 0.00 0.00 0.23 59 1007.7
20260905093706 18 135 0.0 0.0 0.00 0.00 0.23 59 1007.6
20260905093205 18 112 0.0 0.0 0.00 0.00 0.23 58 1007.5
20260905092704 19 112 4.8 0.0 0.00 0.00 0.23 58 1007.5
20260905092203 18 22 6.4 0.0 0.00 0.00 0.23 61 1007.3
20260905091650 17 135 0.0 0.0 0.00 0.00 0.23 64 1007.3
20260905090835 17 135 0.0 0.0 0.00 0.00 0.23 64 1007.1
20260905090335 17 112 0.0 0.0 0.00 0.00 0.23 63 1007.2
20260905085834 17 112 0.0 0.0 0.00 0.00 0.23 63 1007.1
20260905085333 18 0 1.6 0.0 0.00 0.00 0.23 62 1006.9
20260905084831 18 180 0.0 0.0 0.00 0.00 0.23 62 1006.9
20260905084331 18 135 0.0 0.0 0.00 0.00 0.23 63 1007.0
20260905083830 17 157 0.0 0.0 0.00 0.00 0.23 64 1007.0
20260905083329 17 157 0.0 0.0 0.00 0.00 0.23 64 1006.8
20260905082828 17 337 0.0 0.0 0.00 0.00 0.23 63 1006.8
20260905082327 17 135 0.0 0.0 0.00 0.00 0.23 62 1006.8
20260905081826 18 157 0.0 0.0 0.00 0.00 0.23 60 1006.8
20260905081325 18 292 11.3 0.0 0.00 0.00 0.23 59 1006.8
20260905080825 20 0 0.0 0.0 0.00 0.00 0.23 56 1006.7
20260905080324 21 180 0.0 0.0 0.00 0.00 0.23 54 1006.5
20260905075823 21 135 0.0 0.0 0.00 0.00 0.23 54 1006.4
20260905075322 21 22 4.8 0.0 0.00 0.00 0.23 54 1006.4
20260905074821 21 112 0.0 0.0 0.00 0.00 0.23 55 1006.2
20260905074320 21 0 0.0 0.0 0.00 0.00 0.23 57 1006.2
20260905073819 20 0 0.0 0.0 0.00 0.00 0.23 60 1006.0
20260905073318 18 112 0.0 0.0 0.00 0.00 0.23 62 1005.8
20260905072529 17 337 0.0 0.0 0.00 0.00 0.23 64 1005.8
20260905071844 17 135 0.0 0.0 0.00 0.00 0.23 65 1005.8
20260905071343 17 337 0.0 0.0 0.00 0.00 0.23 65 1005.7
20260905070842 17 135 0.0 0.0 0.00 0.00 0.23 65 1005.8
20260905070342 17 112 0.0 0.0 0.00 0.00 0.23 65 1005.7
20260905065841 17 112 0.0 0.0 0.00 0.00 0.23 65 1005.7
20260905065340 17 157 0.0 0.0 0.00 0.00 0.23 64 1005.6
20260905064839 17 157 0.0 0.0 0.00 0.00 0.23 64 1005.5
20260905064338 17 157 0.0 0.0 0.00 0.00 0.23 64 1005.3
20260905063837 17 157 0.0 0.0 0.00 0.00 0.23 64 1005.2
20260905063336 17 0 0.0 0.0 0.00 0.00 0.23 64 1004.9
20260905062835 17 22 0.0 0.0 0.00 0.00 0.23 64 1004.9
20260905062334 18 337 0.0 0.0 0.00 0.00 0.23 62 1004.8
20260905061833 18 337 0.0 0.0 0.00 0.00 0.23 61 1004.7
20260905061332 19 90 0.0 0.0 0.00 0.00 0.23 61 1004.8
20260905060832 20 292 8.0 0.0 0.00 0.00 0.23 63 1004.7
20260905060331 19 0 1.6 0.0 0.00 0.00 0.23 66 1004.7
20260905055830 18 67 0.0 0.0 0.00 0.00 0.23 70 1004.6
20260905055329 17 0 0.0 0.0 0.00 0.00 0.23 72 1004.3
20260905054658 18 247 9.7 0.0 0.00 0.00 0.23 70 1004.1
20260905053659 18 157 0.0 0.0 0.00 0.00 0.23 72 1003.9
20260905053158 17 0 0.0 0.0 0.00 0.00 0.23 75 1003.9
20260905052657 16 180 4.8 0.0 0.00 0.00 0.23 75 1003.9
20260905052156 16 157 0.0 0.0 0.00 0.00 0.23 75 1003.8
20260905051655 16 0 0.0 0.0 0.00 0.00 0.23 76 1003.7
20260905051154 15 157 0.0 0.0 0.00 0.00 0.23 76 1003.7
20260905050654 15 157 0.0 0.0 0.00 0.00 0.23 76 1003.7
20260905050153 16 157 0.0 0.0 0.00 0.00 0.23 77 1003.5
20260905045652 16 337 0.0 0.0 0.00 0.00 0.23 77 1003.3
20260905045151 16 315 0.0 0.0 0.00 0.00 0.23 77 1003.4
20260905044650 16 112 0.0 0.0 0.00 0.00 0.23 78 1003.1
20260905044149 16 112 0.0 0.0 0.00 0.00 0.23 79 1003.0
20260905043648 16 135 0.0 0.0 0.00 0.00 0.23 79 1002.8
20260905043147 15 0 0.0 0.0 0.00 0.00 0.23 79 1002.8
20260905042646 16 0 0.0 0.0 0.00 0.00 0.23 80 1002.7
20260905042145 16 157 0.0 0.0 0.00 0.00 0.23 80 1002.6
20260905041644 16 157 0.0 0.0 0.00 0.00 0.23 80 1002.4
20260905041144 16 135 0.0 0.0 0.00 0.00 0.23 81 1002.4
20260905040619 16 270 0.0 0.0 0.00 0.00 0.23 82 1002.1
20260905035808 16 270 0.0 0.0 0.00 0.00 0.23 83 1002.0
20260905035307 16 0 3.2 0.0 0.00 0.00 0.23 83 1002.0
20260905034806 16 225 0.0 0.0 0.00 0.00 0.23 84 1002.1
20260905034305 16 225 0.0 0.0 0.00 0.00 0.23 84 1002.0
20260905033804 16 225 0.0 0.0 0.00 0.00 0.23 85 1002.0
20260905033303 15 292 0.0 0.0 0.00 0.00 0.23 85 1002.0
20260905032802 15 180 0.0 0.0 0.00 0.00 0.23 85 1001.9
20260905032301 15 337 0.0 0.0 0.00 0.00 0.23 85 1001.9
20260905031800 15 202 0.0 0.0 0.00 0.00 0.23 85 1001.9
20260905031259 15 157 0.0 0.0 0.00 0.00 0.23 85 1002.0
20260905030758 15 225 0.0 0.0 0.00 0.00 0.23 85 1001.9
20260905030258 15 225 0.0 0.0 0.00 0.00 0.23 85 1001.8
20260905025757 15 157 0.0 0.0 0.00 0.00 0.30 84 1001.8
20260905025256 15 112 0.0 0.0 0.00 0.00 0.30 84 1001.7
20260905024755 15 225 0.0 0.0 0.00 0.00 0.30 84 1001.8
20260905024254 15 180 0.0 0.0 0.00 0.00 0.30 83 1001.8
20260905023753 16 247 0.0 0.0 0.00 0.00 0.30 83 1001.8
20260905023252 16 270 6.4 0.0 0.00 0.00 0.30 82 1001.6
20260905022751 16 315 0.0 0.0 0.00 0.00 0.30 81 1001.6
20260905022250 16 180 0.0 0.0 0.00 0.00 0.30 81 1001.6
20260905021750 16 202 0.0 0.0 0.00 0.00 0.30 79 1001.8
20260905020829 16 247 12.9 0.0 0.00 0.00 0.30 78 1001.6
20260905020254 16 247 0.0 0.0 0.00 0.00 0.30 78 1001.7
20260905015753 16 225 0.0 0.0 0.00 0.00 0.30 78 1001.8
20260905015252 16 225 0.0 0.0 0.00 0.00 0.30 78 1001.8
20260905014751 16 247 0.0 0.0 0.00 0.00 0.30 78 1001.7
20260905014250 17 270 0.0 0.0 0.00 0.00 0.30 78 1001.7
20260905013749 17 225 0.0 0.0 0.00 0.00 0.30 78 1001.5
20260905013248 17 157 0.0 0.0 0.00 0.00 0.30 77 1001.3
20260905012747 17 22 0.0 0.0 0.00 0.00 0.30 77 1001.3
20260905012246 17 22 0.0 0.0 0.00 0.00 0.30 77 1001.3
20260905011745 17 202 0.0 0.0 0.00 0.00 0.30 77 1001.4
20260905011244 17 135 1.6 0.0 0.00 0.00 0.30 76 1001.3